EST,Max TemperatureF,Mean TemperatureF,Min TemperatureF,Max Dew PointF,MeanDew PointF,Min DewpointF,Max Humidity, Mean Humidity, Min Humidity, Max Sea Level PressureIn, Mean Sea Level PressureIn, Min Sea Level PressureIn, Max VisibilityMiles, Mean VisibilityMiles, Min VisibilityMiles, Max Wind SpeedMPH, Mean Wind SpeedMPH, Max Gust SpeedMPH,PrecipitationIn, CloudCover, Events, WindDirDegrees
2013-7-1,87,81,75,75,69,-11,94,74,4,29.89,29.86,29.80,6,6,6,6,1,,0.00,4,Rain,129
2013-7-2,87,81,75,75,73,72,89,81,66,29.92,29.86,29.83,6,6,5,6,1,,0.00,4,,37
2013-7-3,89,81,73,75,72,70,89,76,62,29.92,29.87,29.80,6,6,6,7,1,,0.00,2,,193
2013-7-4,89,82,75,77,73,70,89,80,62,29.89,29.87,29.86,6,6,1,8,1,,0.00,3,Rain-Thunderstorm,218
2013-7-5,86,80,73,75,73,70,94,81,66,29.89,29.84,29.77,6,6,2,6,0,,0.00,3,Rain-Thunderstorm,344
2013-7-6,89,82,75,75,70,-8,89,76,4,29.86,29.79,29.74,6,6,6,6,0,,0.00,2,Thunderstorm,114
2013-7-7,86,80,75,75,74,72,89,82,66,29.83,29.79,29.74,6,6,5,2,0,,0.00,4,Rain,180
2013-7-8,86,80,75,77,74,72,94,85,70,29.89,29.83,29.77,6,5,1,10,2,,0.00,6,Rain-Thunderstorm,328
2013-7-9,93,85,77,77,74,72,89,75,49,29.89,29.83,29.77,6,6,6,8,3,,0.00,2,,342
2013-7-10,87,82,77,77,75,73,89,80,66,29.89,29.83,29.80,6,6,6,6,2,,0.00,5,Rain,172
2013-7-11,80,78,73,73,72,68,94,84,70,29.95,29.86,29.80,6,5,1,7,0,,0.00,5,Rain-Thunderstorm,50
2013-7-12,89,79,69,75,71,66,94,76,52,29.89,29.85,29.77,6,6,2,5,0,,0.00,2,Rain-Thunderstorm,66
2013-7-13,89,81,73,75,73,70,94,79,59,29.89,29.84,29.77,6,6,4,6,1,,0.00,3,Rain-Thunderstorm,233
2013-7-14,91,83,75,77,73,72,94,73,52,29.86,29.80,29.74,6,6,6,12,1,,0.00,3,,68
2013-7-15,91,83,75,75,73,72,89,76,52,29.83,29.78,29.71,6,6,5,10,1,,0.00,3,,32
2013-7-16,89,84,78,77,75,73,89,82,66,29.80,29.77,29.74,6,5,1,9,1,,0.00,4,Rain-Thunderstorm,284
2013-7-17,89,84,78,77,74,68,89,76,49,29.86,29.79,29.74,6,6,6,7,2,,0.00,4,,325
2013-7-18,78,78,77,73,73,72,89,86,83,29.86,29.81,29.80,6,6,6,5,1,,0.00,3,,180
2013-7-19,75,75,75,72,72,72,89,89,89,29.89,29.86,29.83,6,6,6,0,0,,0.00,3,,-1
2013-7-20,80,78,75,75,74,72,89,84,79,29.83,29.79,29.74,6,6,6,0,0,,0.00,6,,-1
2013-7-21,87,81,75,75,73,70,94,82,66,29.89,29.80,29.74,6,6,4,6,0,,0.00,6,Rain-Thunderstorm,241
2013-7-22,87,81,75,75,74,72,94,75,66,29.89,29.84,29.80,6,6,6,4,0,,0.00,6,Thunderstorm,283
2013-7-23,89,86,82,77,76,75,84,72,62,29.83,29.79,29.74,6,6,5,5,2,,0.00,5,Rain,150
2013-7-24,95,86,77,75,74,72,89,72,49,29.83,29.75,29.68,6,6,6,9,1,,0.00,4,,28
2013-7-25,87,82,78,77,75,73,84,79,70,29.86,29.80,29.74,6,6,5,7,1,,0.00,5,Thunderstorm,191
2013-7-26,89,84,78,75,74,70,89,78,62,29.89,29.84,29.80,6,6,3,9,2,,0.00,4,Rain-Thunderstorm,327
2013-7-27,89,83,77,75,74,72,89,82,59,29.89,29.83,29.77,6,6,4,8,2,,0.00,5,Rain-Thunderstorm,316
2013-7-28,89,82,75,75,73,72,89,77,62,29.86,29.83,29.77,6,6,4,7,1,,0.00,4,Thunderstorm,205
2013-7-29,87,81,75,75,73,70,89,78,58,29.95,29.87,29.80,6,6,4,12,2,,0.00,4,Rain-Thunderstorm,333
2013-7-30,89,83,77,75,73,72,89,75,62,29.95,29.89,29.83,6,6,2,8,3,,0.00,4,Rain,301
2013-7-31,91,84,77,75,73,70,89,79,55,29.92,29.86,29.80,6,6,5,23,2,,0.00,4,Rain-Thunderstorm,305